Retour au catalogue

STARLINK-32037

ActifCommunicationsVLEO
NORAD 60283·PAYLOAD·🇺🇸 United States

Lancé Jul 28, 2024 depuis Cape Canaveral Space Force Station

Loading…

Prochains Passages (prochaines 24 heures)

TLE

FraisSource: CelesTrak SupGP

Époque: Sep 14, 2026, 14:11 UTC

1 60283C 24132F   26257.59145833 -.00019352  00000+0 -62246-3 0  2572
2 60283  53.1579 253.9928 0001371  67.4443  30.1336 15.31704448    13

Suivez STARLINK-32037 en temps réel avec AllMySat

Download on the App Store